Location: Codford Saint Peter
(51.1597°N, 2.0531°W)
Time: 16:21:51
(UTC+00:00)

Meteor 1-12 Rocket - Pass Details

Date: 18 September 2020
Orbit: 854 x 927 km, 81.2° (Epoch: 30 October)

Event Time Altitude Azimuth Distance (km) Brightness Sun altitude
Rises 19:50:53 0° 189° (S) 3,537 7.3 -15.5°
Reaches altitude 10° 19:53:21 10° 190° (S) 2,590 6.6 -15.8°
Maximum altitude 19:59:17 88° 99° (E) 906 4.3 -16.7°
Drops below altitude 10° 20:05:08 10° 13° (NNE) 2,559 6.9 -17.5°
Sets 20:07:34 0° 13° (NNE) 3,492 7.6 -17.9°
